IDALKE38 Weather Reports


time (UTC)temp
C
wind
direction
speed
KPH
gust
KPH
rain 1hr
cm
rain 24hr
cm
rain mn
cm
humidity
%
barometer
mb
20260507050035 6 247 8.0 12.9 0.00 0.13 0.00 84 1007.5
20260507044625 6 227 4.8 9.7 0.00 0.13 0.00 84 1007.7
20260507043039 6 236 3.2 11.3 0.00 0.13 0.00 84 1007.9
20260507041538 6 231 4.8 8.0 0.00 0.13 0.00 85 1008.2
20260507040043 6 225 3.2 9.7 0.00 0.13 0.00 85 1008.1
20260507034540 6 219 3.2 6.4 0.00 0.13 0.13 85 1008.0
20260507033038 6 237 3.2 8.0 0.00 0.13 0.13 85 1008.1
20260507031539 6 246 1.6 8.0 0.00 0.13 0.13 85 1008.1
20260507030038 6 225 1.6 8.0 0.00 0.13 0.13 85 1008.3
20260507024538 6 215 3.2 8.0 0.00 0.13 0.13 86 1008.3
20260507023037 6 198 3.2 6.4 0.00 0.13 0.13 86 1008.5
20260507021536 6 193 0.0 3.2 0.00 0.13 0.13 85 1008.6
20260507020035 6 193 0.0 1.6 0.00 0.13 0.13 84 1008.6
20260507014538 6 0 0.0 4.8 0.00 0.13 0.13 83 1008.8
20260507013039 6 223 1.6 6.4 0.00 0.13 0.13 82 1008.8
20260507011540 7 226 3.2 8.0 0.00 0.13 0.13 82 1008.9
20260507010038 7 216 4.8 8.0 0.00 0.13 0.13 81 1008.8
20260507004536 7 215 3.2 8.0 0.00 0.13 0.13 80 1008.6
20260507003035 7 220 3.2 9.7 0.00 0.13 0.13 80 1008.5
20260507001547 7 242 3.2 9.7 0.00 0.13 0.13 79 1008.3
20260507000040 7 215 3.2 8.0 0.00 0.13 0.13 78 1008.3
20260506234544 8 214 3.2 9.7 0.00 0.13 0.13 77 1008.2
20260506233038 8 208 3.2 8.0 0.00 0.13 0.13 77 1008.1
20260506231538 8 223 3.2 12.9 0.00 0.13 0.13 76 1008.1
20260506230035 8 219 4.8 11.3 0.00 0.13 0.13 76 1008.0
20260506224619 8 207 3.2 9.7 0.00 0.13 0.00 78 1007.8
20260506224540 8 209 1.6 11.3 0.00 0.13 0.13 77 1007.7
20260506223037 8 209 3.2 12.9 0.00 0.13 0.13 76 1007.7
20260506223031 8 209 3.2 9.7 0.00 0.13 0.00 77 1008.0
20260506221538 8 220 4.8 11.3 0.00 0.13 0.13 77 1007.7
20260506221518 8 220 4.8 11.3 0.00 0.13 0.00 78 1008.1
20260506220042 8 236 6.4 16.1 0.00 0.13 0.13 76 1007.9
20260506220015 8 237 4.8 16.1 0.00 0.13 0.00 76 1008.2
20260506214606 8 223 8.0 11.3 0.00 0.13 0.00 76 1008.5
20260506214537 8 242 6.4 16.1 0.00 0.13 0.13 75 1008.1
20260506213035 8 209 6.4 14.5 0.00 0.13 0.13 75 1008.1
20260506213032 8 209 4.8 14.5 0.00 0.13 0.00 76 1008.5
20260506211626 8 197 6.4 14.5 0.00 0.13 0.00 75 1008.3
20260506211540 8 225 8.0 14.5 0.00 0.13 0.13 75 1007.9
20260506210100 8 155 1.6 12.9 0.00 0.13 0.00 78 1008.1
20260506210038 8 153 3.2 12.9 0.00 0.13 0.13 78 1007.9
20260506204537 8 209 4.8 11.3 0.00 0.13 0.13 78 1007.9
20260506204525 8 208 3.2 11.3 0.00 0.13 0.00 78 1008.2
20260506203102 7 218 8.0 16.1 0.00 0.13 0.13 77 1008.1
20260506203010 7 208 6.4 14.5 0.00 0.13 0.00 78 1008.4
20260506201610 7 234 3.2 12.9 0.00 0.13 0.00 80 1008.3
20260506201539 7 182 3.2 12.9 0.00 0.13 0.13 79 1008.2
20260506200046 7 223 6.4 11.3 0.00 0.13 0.13 79 1008.3
20260506200038 7 223 6.4 11.3 0.00 0.13 0.00 80 1008.6
20260506194619 7 232 4.8 12.9 0.00 0.13 0.00 80 1008.7
20260506194541 7 213 6.4 12.9 0.00 0.13 0.13 80 1008.5
20260506193104 7 217 4.8 14.5 0.00 0.13 0.00 81 1008.8
20260506193039 7 217 4.8 16.1 0.00 0.13 0.13 81 1008.7
20260506191539 7 211 4.8 11.3 0.00 0.13 0.13 80 1008.7
20260506191530 7 210 4.8 11.3 0.00 0.13 0.00 81 1008.8
20260506190046 7 199 3.2 12.9 0.00 0.13 0.13 81 1008.8
20260506190019 7 199 4.8 12.9 0.00 0.13 0.00 81 1008.8
20260506184629 7 222 4.8 14.5 0.00 0.13 0.00 81 1008.9
20260506184548 7 220 4.8 14.5 0.00 0.13 0.13 81 1008.9
20260506183034 7 194 1.6 11.3 0.00 0.13 0.13 82 1008.9
20260506183025 7 194 1.6 8.0 0.00 0.13 0.00 83 1009.0
20260506181626 7 166 1.6 9.7 0.00 0.13 0.00 83 1009.1
20260506181538 7 198 1.6 9.7 0.00 0.13 0.13 82 1009.0
20260506180056 6 187 3.2 8.0 0.00 0.13 0.00 83 1008.8
20260506180039 6 185 3.2 9.7 0.00 0.13 0.13 83 1008.9
20260506174537 6 126 8.0 12.9 0.00 0.13 0.13 83 1008.8
20260506174516 6 126 8.0 12.9 0.00 0.13 0.00 83 1008.8
20260506173117 6 136 6.4 12.9 0.00 0.13 0.00 83 1008.8
20260506173047 6 155 6.4 11.3 0.00 0.13 0.13 83 1008.9
20260506171538 6 135 4.8 19.3 0.00 0.13 0.13 85 1009.0
20260506171534 6 133 4.8 16.1 0.00 0.13 0.00 85 1009.1
20260506170036 6 142 6.4 12.9 0.00 0.13 0.13 86 1009.3
20260506170004 6 135 6.4 12.9 0.00 0.13 0.00 86 1009.2
20260506164613 6 142 3.2 12.9 0.00 0.13 0.00 86 1009.4
20260506164545 6 150 3.2 12.9 0.00 0.13 0.13 86 1009.3
20260506163055 6 206 3.2 9.7 0.00 0.13 0.13 88 1009.3
20260506163027 6 207 3.2 9.7 0.00 0.13 0.00 88 1009.6
20260506161538 6 209 3.2 11.3 0.00 0.13 0.13 87 1009.6
20260506160038 6 198 1.6 12.9 0.00 0.13 0.13 88 1009.3
20260506154543 5 189 6.4 11.3 0.00 0.13 0.13 87 1009.5
20260506153034 5 171 4.8 16.1 0.03 0.13 0.13 88 1009.7
20260506151542 5 175 1.6 6.4 0.03 0.13 0.13 89 1009.9
20260506150038 5 168 1.6 8.0 0.05 0.13 0.13 90 1009.9
20260506144537 5 0 1.6 12.9 0.08 0.13 0.13 90 1009.8
20260506143057 5 162 4.8 14.5 0.08 0.13 0.10 91 1009.6
20260506143039 5 166 4.8 14.5 0.08 0.10 0.10 90 1009.6
20260506141535 5 133 1.6 8.0 0.10 0.10 0.10 90 1009.7
20260506141515 5 147 1.6 6.4 0.10 0.13 0.10 91 1009.7
20260506140108 5 186 1.6 9.7 0.08 0.10 0.08 90 1009.5
20260506140040 5 190 3.2 9.7 0.08 0.08 0.08 89 1009.6
20260506134537 5 146 1.6 6.4 0.05 0.05 0.05 89 1009.7
20260506134535 5 196 3.2 9.7 0.05 0.08 0.05 89 1009.4
20260506133110 5 214 3.2 9.7 0.03 0.05 0.03 88 1009.4
20260506133038 5 214 3.2 9.7 0.03 0.03 0.03 87 1009.6
20260506131539 5 201 3.2 11.3 0.00 0.00 0.00 86 1009.7
20260506131537 5 209 3.2 14.5 0.00 0.03 0.00 86 1009.6
20260506130040 5 198 3.2 14.5 0.00 0.00 0.00 85 1009.5
20260506130013 5 200 4.8 14.5 0.00 0.03 0.00 85 1009.3
20260506124608 5 200 6.4 14.5 0.00 0.03 0.00 85 1009.4
20260506124545 5 200 4.8 16.1 0.00 0.00 0.00 84 1009.6
20260506123044 5 206 6.4 12.9 0.00 0.03 0.00 85 1009.2
20260506123036 5 211 4.8 16.1 0.00 0.00 0.00 85 1009.5
20260506121627 5 189 4.8 12.9 0.00 0.03 0.00 85 1009.2
20260506121546 5 174 4.8 14.5 0.00 0.00 0.00 85 1009.4
20260506120107 6 199 3.2 11.3 0.00 0.03 0.00 86 1009.2
20260506120040 6 201 3.2 11.3 0.00 0.00 0.00 85 1009.4
20260506114534 6 146 6.4 16.1 0.00 0.00 0.00 85 1009.3
20260506114503 6 150 6.4 16.1 0.00 0.03 0.00 85 1009.0
20260506113121 6 146 4.8 16.1 0.00 0.03 0.00 84 1009.0
20260506113034 6 173 6.4 16.1 0.00 0.00 0.00 83 1009.1
20260506111538 6 199 3.2 8.0 0.00 0.00 0.00 81 1009.1
20260506111536 6 196 3.2 11.3 0.00 0.03 0.00 82 1009.0
20260506110041 6 199 0.0 8.0 0.00 0.00 0.00 81 1009.0
20260506110029 6 199 1.6 6.4 0.00 0.03 0.00 82 1009.0
20260506104628 6 210 6.4 12.9 0.00 0.03 0.00 81 1009.2
20260506104537 6 202 4.8 9.7 0.00 0.00 0.00 81 1009.1
20260506103104 7 214 8.0 14.5 0.00 0.03 0.00 81 1009.2
20260506103038 7 199 6.4 12.9 0.00 0.00 0.00 81 1009.2
20260506101535 7 205 1.6 9.7 0.00 0.00 0.00 84 1009.0
20260506101524 7 205 1.6 9.7 0.00 0.03 0.00 84 1009.0
20260506100037 7 205 3.2 14.5 0.00 0.00 0.00 84 1009.0
20260506100012 7 202 4.8 11.3 0.00 0.03 0.00 85 1008.9
20260506094606 7 178 3.2 12.9 0.00 0.03 0.00 85 1008.9
20260506094539 7 178 4.8 12.9 0.00 0.00 0.00 85 1008.9
20260506093039 7 223 6.4 16.1 0.00 0.00 0.00 85 1008.9
20260506093026 7 223 6.4 14.5 0.00 0.03 0.00 85 1008.9
20260506091621 7 204 4.8 11.3 0.00 0.03 0.00 85 1008.9
20260506091537 7 213 4.8 12.9 0.00 0.00 0.00 85 1008.9
20260506090057 7 215 8.0 14.5 0.00 0.03 0.00 85 1008.9
20260506090037 7 209 6.4 14.5 0.00 0.00 0.00 84 1009.0
20260506084543 7 221 4.8 14.5 0.00 0.00 0.00 84 1008.8
20260506084517 7 221 4.8 11.3 0.00 0.03 0.00 85 1008.7
20260506083112 7 215 6.4 11.3 0.00 0.03 0.00 85 1008.7
20260506083042 7 225 4.8 11.3 0.00 0.00 0.00 84 1008.5
20260506081542 8 213 4.8 14.5 0.00 0.00 0.00 83 1008.8
20260506081535 8 213 3.2 14.5 0.00 0.03 0.00 84 1008.8
20260506073038 8 229 6.4 14.5 0.00 0.00 0.00 83 1008.9
20260506073035 8 229 4.8 14.5 0.00 0.03 0.00 83 1008.6
20260506071627 8 216 4.8 16.1 0.00 0.03 0.00 84 1008.5
20260506071542 8 224 6.4 16.1 0.00 0.00 0.00 83 1008.7
20260506070119 8 225 9.7 16.1 0.00 0.03 0.00 84 1008.4
20260506061542 8 231 8.0 19.3 0.00 0.03 0.00 84 1008.5
20260506061537 8 220 11.3 20.9 0.00 0.00 0.00 83 1008.5
20260506060126 9 219 8.0 16.1 0.00 0.03 0.00 83 1008.2